Beckley, WV

7:40 PM EST on November 21, 2019 (GMT -0500)
Raleigh County Memorial

Weather History for KBKW - July, 2019

Change the Weather History Date:

Sunday, July 21, 2019

  Actual Average Record
Temperature  
Mean Temperature 79 °F 71 °F  
Max Temperature 88 °F 80 °F 103 °F (1926)
Min Temperature 69 °F 62 °F 42 °F (1951)
Degree Days  
Heating Degree Days 0 0  
Month to date heating degree days 0 0  
Since 1 June heating degree days 33 39  
Since 1 July heating degree days 0 0  
Cooling Degree Days 14 6  
Month to date cooling degree days 229 126  
Year to date cooling degree days 455 278  
Since 1 June cooling degree days 335 237  
Growing Degree Days 29 (Base 50)    
Moisture  
Dew Point 69 °F    
Average Humidity 73    
Maximum Humidity 90    
Minimum Humidity 55    
Precipitation  
Precipitation 0.14 in 0.16 in 2.82 in (1954)
Month to date precipitation 3.11 3.36  
Year to date precipitation 26.00 24.52  
Sea Level Pressure  
Sea Level Pressure 30.00 in    
Wind  
Wind Speed 5 mph (SSW)    
Max Wind Speed 12 mph    
Max Gust Speed 16 mph    
Visibility 10 miles    
Events Rain , Thunderstorm    
T = Trace of Precipitation, MM = Missing Value Source: NWS Daily Summary

Daily Weather History Graph

Daily Weather History Graph

Search for Another Location

Airport or City:

Astronomy

Jul. 21, 2019 Rise Set
Actual Time 6:18 AM EDT 8:42 PM EDT
Civil Twilight 5:48 AM EDT 9:12 PM EDT
Nautical Twilight 5:11 AM EDT 9:49 PM EDT
Astronomical Twilight 4:30 AM EDT 10:30 PM EDT
Moon 11:40 PM EDT (7/21) 10:34 AM EDT (7/21)
Length of Visible Light 15h 23m
Length of Day
14h 23m
Waning Gibbous, 80% of the Moon is Illuminated
Jul 21
Waning Gibbous
Jul 24
Last Quarter
Jul 31
New
Aug 7
First Quarter
Aug 15
Full

Hourly Weather History & Observations

Time (EDT) Temp. Heat Index Dew Point Humidity Pressure Visibility Wind Dir Wind Speed Gust Speed Precip Events Conditions
12:51 AM 73.9 °F - 69.1 °F 85% 29.97 in 10.0 mi South 6.9 mph - N/A   Clear
1:51 AM 73.0 °F - 69.1 °F 87% 29.97 in 10.0 mi South 4.6 mph - N/A   Clear
2:51 AM 72.0 °F - 68.0 °F 87% 29.95 in 10.0 mi South 4.6 mph - N/A   Clear
3:51 AM 72.0 °F - 66.9 °F 84% 29.94 in 10.0 mi SSW 5.8 mph - N/A   Clear
4:51 AM 71.1 °F - 68.0 °F 90% 29.95 in 10.0 mi SSW 3.5 mph - N/A   Clear
5:51 AM 71.1 °F - 68.0 °F 90% 29.95 in 10.0 mi SSW 4.6 mph - N/A   Clear
7:51 AM 73.9 °F - 69.1 °F 85% 29.97 in 10.0 mi WSW 4.6 mph - N/A   Clear
8:51 AM 75.9 °F - 70.0 °F 82% 29.99 in 10.0 mi SSW 8.1 mph - N/A   Clear
9:51 AM 79.0 °F - 70.0 °F 74% 29.99 in 10.0 mi West 5.8 mph - N/A   Partly Cloudy
10:51 AM 81.0 °F 84.4 °F 70.0 °F 69% 29.99 in 10.0 mi Variable 3.5 mph - N/A   Mostly Cloudy
11:26 AM 80.1 °F 82.9 °F 69.1 °F 69% 30.11 in 10.0 mi WSW 4.6 mph - N/A   Overcast
11:51 AM 82.9 °F 87.0 °F 70.0 °F 65% 29.99 in 10.0 mi Calm Calm - N/A   Mostly Cloudy
12:07 PM 80.1 °F 82.9 °F 69.1 °F 69% 30.12 in 10.0 mi NNW 9.2 mph - N/A   Mostly Cloudy
12:29 PM 80.1 °F 82.7 °F 68.0 °F 67% 30.11 in 10.0 mi North 5.8 mph - N/A   Mostly Cloudy
12:51 PM 81.0 °F 84.1 °F 69.1 °F 67% 29.99 in 10.0 mi Variable 3.5 mph - 0.00 in Rain Light Rain
1:19 PM 81.0 °F 84.4 °F 70.0 °F 69% 30.10 in 10.0 mi NW 10.4 mph - 0.00 in Thunderstorm Overcast
1:38 PM 82.9 °F 87.0 °F 70.0 °F 65% 30.09 in 10.0 mi Variable 4.6 mph - 0.00 in   Mostly Cloudy
1:51 PM 82.0 °F 85.5 °F 69.1 °F 65% 29.96 in 10.0 mi NNW 6.9 mph - 0.00 in   Mostly Cloudy
2:02 PM 84.0 °F 88.4 °F 70.0 °F 63% 30.08 in 10.0 mi NW 4.6 mph - N/A   Mostly Cloudy
2:51 PM 82.9 °F 86.5 °F 69.1 °F 63% 29.94 in 10.0 mi North 9.2 mph - N/A   Mostly Cloudy
3:51 PM 86.0 °F 89.4 °F 68.0 °F 55% 29.93 in 10.0 mi WNW 8.1 mph - N/A   Scattered Clouds
4:47 PM 82.4 °F 87.2 °F 71.6 °F 70% 30.06 in 10.0 mi North 3.5 mph - N/A Thunderstorm Mostly Cloudy
4:51 PM 82.0 °F 86.3 °F 71.1 °F 69% 29.94 in 10.0 mi North 5.8 mph - N/A Thunderstorm Scattered Clouds
5:05 PM 81.0 °F 84.9 °F 71.1 °F 72% 30.06 in 10.0 mi NE 5.8 mph - N/A   Scattered Clouds
5:30 PM 80.1 °F 83.6 °F 71.1 °F 74% 30.05 in 10.0 mi East 8.1 mph - N/A Thunderstorm Mostly Cloudy
5:51 PM 79.0 °F - 70.0 °F 74% 29.94 in 10.0 mi ESE 8.1 mph - N/A Thunderstorm Thunderstorm
6:06 PM 75.9 °F - 69.1 °F 79% 30.05 in 10.0 mi SE 11.5 mph - N/A Thunderstorm Mostly Cloudy
6:51 PM 72.0 °F - 66.9 °F 84% 29.96 in 1.5 mi South 9.2 mph - 0.02 in Rain , Thunderstorm Heavy Rain
7:00 PM 72.0 °F - 66.0 °F 81% 30.04 in 2.0 mi SE 9.2 mph - 0.10 in Rain Light Rain
7:07 PM 72.0 °F - 66.9 °F 84% 30.05 in 10.0 mi Variable 3.5 mph - 0.10 in Rain Light Rain
7:29 PM 72.0 °F - 68.0 °F 87% 30.06 in 10.0 mi Calm Calm - 0.10 in Thunderstorm Partly Cloudy
7:44 PM 72.0 °F - 66.9 °F 84% 30.07 in 10.0 mi SSE 9.2 mph - 0.10 in   Scattered Clouds
7:51 PM 72.0 °F - 66.9 °F 84% 29.96 in 8.0 mi South 8.1 mph - 0.10 in Rain Light Rain
8:29 PM 72.0 °F - 68.0 °F 87% 30.05 in 10.0 mi South 4.6 mph - 0.01 in Thunderstorm Scattered Clouds
8:51 PM 71.1 °F - 68.0 °F 90% 29.96 in 10.0 mi Calm Calm - 0.01 in Rain , Thunderstorm Light Rain
9:00 PM 71.6 °F - 69.8 °F 94% 30.07 in 10.0 mi Calm Calm - N/A   Scattered Clouds
9:51 PM 71.1 °F - 68.0 °F 90% 29.95 in 10.0 mi SE 5.8 mph - 0.01 in   Mostly Cloudy
10:51 PM 70.0 °F - 66.0 °F 87% 29.94 in 10.0 mi SSE 5.8 mph - N/A   Partly Cloudy
11:51 PM 70.0 °F - 66.9 °F 90% 29.95 in 10.0 mi Calm Calm - N/A   Scattered Clouds